Location: Oregon Star Party
(44.2935°N, 120.1332°W)
Time: 18:36:55
(UTC-08:00)

Amateur Radio Satellites - All Passes

Search period start: 16 December 2017 18:06
Search period end: 17 December 2017 18:06
Location: Oregon Star Party, 44.2935°N, 120.1332°W

Satellite Date Start Highest point End Downlink Frequencies (MHz)
Time Altitude Azimuth
nSIGHT-1 16 Dec 18:09:00 18:10:06 11° 229° (SW) 18:11:12 .
ZACube-1 16 Dec 18:09:51 18:12:26 16° 64° (ENE) 18:15:03 437.345
XW-2F 16 Dec 18:11:42 18:14:39 21° 266° (W) 18:17:37 145.980 - 146.000
CUTE 1.7 + AOD 2 16 Dec 18:17:15 18:21:30 77° 257° (WSW) 18:25:49 437.475
KKS-1 16 Dec 18:17:58 18:21:54 32° 292° (WNW) 18:25:49 437.445
Oscar 11 16 Dec 18:25:29 18:27:58 15° 62° (ENE) 18:30:28 .
XW-2C 16 Dec 18:30:42 18:32:27 13° 270° (W) 18:34:14 145.795 - 145.815
AO-73 16 Dec 18:41:07 18:44:42 29° 69° (ENE) 18:48:19 145.935
STARS 16 Dec 18:54:08 18:58:02 32° 292° (WNW) 19:01:55 437.465
O/OREOS (USA 219) 16 Dec 19:03:25 19:05:40 14° 262° (W) 19:07:56 437.305
FO-29 16 Dec 19:06:37 19:10:50 17° 85° (E) 19:14:46 435.910
XW-2A 16 Dec 19:09:59 19:13:19 66° 260° (W) 19:16:41 145.665 - 145.685
HO-68 16 Dec 19:17:24 19:23:42 32° 265° (W) 19:30:03 435.675
UWE-3 16 Dec 19:24:59 19:28:54 40° 262° (W) 19:32:50 435.000/436.395/437.385
SEEDS 16 Dec 19:26:16 19:29:39 23° 266° (W) 19:33:05 437.485
CUBEBUG 2 16 Dec 19:31:27 19:34:36 20° 267° (W) 19:37:45 437.445
STRAND 1 16 Dec 19:33:46 19:38:53 74° 103° (ESE) 19:43:58 437.568
AAUSAT CUBESAT 2 16 Dec 19:37:00 19:40:54 38° 263° (W) 19:44:50 437.432
BEESAT 3 16 Dec 19:43:12 19:47:12 90° 322° (NW) 19:51:13 437.485
ZACube-1 16 Dec 19:44:21 19:48:21 48° 261° (W) 19:52:23 437.345
RS-15 16 Dec 19:51:13 20:01:23 29° 12° (NNE) 20:11:09 29.354- 29.394
PCSat 16 Dec 19:51:20 19:55:43 24° 317° (NW) 20:00:08 145.827
Max Valier Satellite 16 Dec 19:56:41 19:59:01 16° 65° (ENE) 20:01:23 145.860
Oscar 11 16 Dec 19:59:23 20:03:38 58° 260° (W) 20:07:56 .
AO-85 16 Dec 20:12:58 20:14:35 12° 108° (ESE) 20:16:14 145.980
DELFI C3 16 Dec 20:15:40 20:19:26 41° 72° (ENE) 20:23:12 145.870
AO-73 16 Dec 20:17:34 20:20:56 24° 266° (W) 20:24:22 145.935
EO-88 16 Dec 20:18:27 20:21:09 20° 67° (ENE) 20:23:52 145.990 - 145.960
BEESAT 2 16 Dec 20:29:04 20:33:05 78° 123° (ESE) 20:37:09 435.950
FO-29 16 Dec 20:49:58 20:56:54 81° 287° (WNW) 21:02:56 435.910
TIGRISAT 16 Dec 21:03:55 21:07:20 22° 94° (E) 21:10:47 435.000
UNISAT 6 16 Dec 21:07:41 21:11:24 26° 95° (E) 21:15:08 437.425
STRAND 1 16 Dec 21:14:24 21:17:28 16° 301° (WNW) 21:20:32 437.568
BEESAT 3 16 Dec 21:23:07 21:25:18 14° 324° (NW) 21:27:30 437.485
Max Valier Satellite 16 Dec 21:29:09 21:32:33 36° 262° (W) 21:35:59 145.860
SO-50 16 Dec 21:47:39 21:50:52 18° 36° (NE) 21:54:06 436.795
AO-85 16 Dec 21:50:26 21:54:20 64° 307° (NW) 21:58:30 145.980
EO-88 16 Dec 21:51:24 21:54:36 29° 264° (W) 21:57:50 145.990 - 145.960
DELFI C3 16 Dec 21:51:45 21:54:21 17° 268° (W) 21:56:56 145.870
RS-15 16 Dec 22:05:23 22:17:09 58° 44° (NE) 22:28:15 29.354- 29.394
BEESAT 2 16 Dec 22:08:45 22:11:19 16° 322° (NW) 22:13:53 435.950
FALCONSAT 3 16 Dec 22:11:22 22:13:58 18° 171° (S) 22:16:35 435.103
LO-87 16 Dec 22:13:18 22:16:46 60° 75° (ENE) 22:20:16 145.935 - 145.965
ESTCUBE 1 16 Dec 22:28:46 22:33:16 71° 74° (ENE) 22:37:49 437.505/2401.250
AIST 2D 16 Dec 22:35:12 22:38:04 22° 95° (E) 22:40:54 435.315
PRISM 16 Dec 22:35:38 22:39:43 64° 101° (E) 22:43:45 437.425
FO-29 16 Dec 22:36:40 22:40:42 17° 308° (NW) 22:44:30 435.910
SPROUT 16 Dec 22:36:59 22:40:11 21° 65° (ENE) 22:43:24 437.525
TIGRISAT 16 Dec 22:40:06 22:44:07 37° 290° (WNW) 22:48:11 435.000
UNISAT 6 16 Dec 22:44:15 22:48:06 31° 291° (WNW) 22:52:00 437.425
EO-79 16 Dec 22:51:28 22:53:09 12° 90° (E) 22:54:52 145.935-145.965
POLYITAN 1 16 Dec 23:13:52 23:17:09 21° 94° (E) 23:20:25 437.675
SO-50 16 Dec 23:27:15 23:31:56 87° 240° (WSW) 23:36:41 436.795
AO-85 16 Dec 23:34:01 23:35:40 12° 330° (NNW) 23:37:21 145.980
QB50P2 16 Dec 23:39:14 23:43:18 44° 99° (E) 23:47:21 145.880/145.840
DUCHIFAT 1 16 Dec 23:40:16 23:44:01 31° 97° (E) 23:47:46 145.980
FALCONSAT 3 16 Dec 23:49:42 23:52:25 19° 187° (S) 23:55:07 435.103
VELOX 1 16 Dec 23:50:50 23:55:17 78° 74° (ENE) 23:59:45 145.980
50 SAT 17 Dec 00:06:52 00:09:12 19° 68° (ENE) 00:11:33 437.505
NANOSAT C BR1 17 Dec 00:07:56 00:12:10 74° 103° (ESE) 00:16:22 145.865
AIST 2D 17 Dec 00:08:16 00:11:08 23° 291° (WNW) 00:14:01 435.315
ESTCUBE 1 17 Dec 00:08:41 00:10:33 12° 271° (W) 00:12:27 437.505/2401.250
BUGSAT 1 17 Dec 00:11:18 00:13:50 16° 92° (E) 00:16:23 437.445
SPROUT 17 Dec 00:11:54 00:15:50 37° 262° (W) 00:19:49 437.525
PRISM 17 Dec 00:12:35 00:14:28 13° 299° (WNW) 00:16:19 437.425
UKube-1 17 Dec 00:18:05 00:21:25 22° 65° (ENE) 00:24:45 .
RS-15 17 Dec 00:18:25 00:29:25 49° 249° (WSW) 00:39:54 29.354- 29.394
EO-79 17 Dec 00:25:08 00:29:19 63° 287° (WNW) 00:33:29 145.935-145.965
DX 1 17 Dec 00:38:19 00:42:36 56° 72° (ENE) 00:46:54 434.975-435.025
POLYITAN 1 17 Dec 00:49:08 00:53:01 35° 290° (WNW) 00:56:52 437.675
Gurwin Techsat 1B 17 Dec 01:01:00 01:05:23 25° 94° (E) 01:09:43 435.225
SO-50 17 Dec 01:10:23 01:11:41 11° 253° (WSW) 01:12:59 436.795
PCSat 17 Dec 01:10:29 01:13:50 16° 36° (NE) 01:17:11 145.827
QB50P2 17 Dec 01:15:51 01:18:45 18° 296° (WNW) 01:21:39 145.880/145.840
AO-91 17 Dec 01:16:06 01:19:20 37° 98° (E) 01:22:28 145.960
DUCHIFAT 1 17 Dec 01:16:08 01:19:32 24° 293° (WNW) 01:22:57 145.980
BEESAT 17 Dec 01:20:02 01:23:08 18° 61° (ENE) 01:26:14 436.000
YUBILEINY 17 Dec 01:23:22 01:30:10 26° 80° (E) 01:36:59 435.215
FALCONSAT 3 17 Dec 01:30:08 01:30:44 10° 202° (SSW) 01:31:19 435.103
VELOX 1 17 Dec 01:31:12 01:32:15 11° 272° (W) 01:33:18 145.980
Oscar 19 17 Dec 01:36:44 01:41:57 71° 102° (ESE) 01:47:08 437.125/150
50 SAT 17 Dec 01:38:31 01:41:01 21° 264° (W) 01:43:33 437.505
BUGSAT 1 17 Dec 01:45:33 01:49:24 44° 288° (WNW) 01:53:17 437.445
NANOSAT C BR1 17 Dec 01:45:41 01:47:17 12° 300° (WNW) 01:48:52 145.865
ITUPSAT 1 17 Dec 01:48:56 01:53:05 31° 66° (ENE) 01:57:15 437.325
UKube-1 17 Dec 01:53:11 01:57:12 38° 262° (W) 02:01:15 .
CUBESAT XI-V 17 Dec 02:06:07 02:09:10 17° 62° (ENE) 02:12:14 437.345
MOZHAYETS 4 17 Dec 02:10:51 02:15:23 70° 73° (ENE) 02:19:56
DX 1 17 Dec 02:16:37 02:19:07 15° 269° (W) 02:21:37 434.975-435.025
BEESAT 3 17 Dec 02:22:07 02:24:07 13° 36° (NE) 02:26:05 437.485
Gurwin Techsat 1B 17 Dec 02:40:27 02:45:30 45° 291° (WNW) 02:50:32 435.225
PCSat 17 Dec 02:52:47 02:58:13 72° 57° (ENE) 03:03:37 145.827
AO-91 17 Dec 02:53:51 02:55:30 13° 296° (WNW) 02:57:07 145.960
ITAMSAT 1 17 Dec 02:55:32 02:59:33 22° 93° (E) 03:03:33 435.822/435.867
BEESAT 17 Dec 02:55:45 03:00:26 60° 259° (W) 03:05:09 436.000
BEESAT 2 17 Dec 03:08:52 03:10:43 13° 34° (NE) 03:12:34 435.950
YUBILEINY 17 Dec 03:17:16 03:26:04 73° 280° (W) 03:34:58 435.215
Oscar 19 17 Dec 03:17:21 03:20:41 17° 301° (WNW) 03:24:01 437.125/150
AO-7 17 Dec 03:23:55 03:32:11 59° 103° (ESE) 03:40:24 .
ITUPSAT 1 17 Dec 03:26:39 03:30:51 31° 264° (W) 03:35:05 437.325
KKS-1 17 Dec 03:40:56 03:44:49 30° 67° (ENE) 03:48:43 437.445
CUBESAT XI-V 17 Dec 03:41:28 03:46:04 58° 260° (W) 03:50:44 437.345
MOZHAYETS 4 17 Dec 03:51:03 03:53:01 13° 271° (W) 03:55:00
BEESAT 3 17 Dec 03:58:18 04:02:16 86° 55° (NE) 04:06:09 437.485
M-CUBED/EXP-1 PRIME 17 Dec 04:02:08 04:06:39 89° 283° (WNW) 04:10:51 437.505
STARS 17 Dec 04:15:57 04:19:41 28° 67° (ENE) 04:23:25 437.465
DOVE 4 17 Dec 04:32:43 04:36:52 38° 97° (E) 04:40:49 437.250
ITAMSAT 1 17 Dec 04:34:16 04:39:15 49° 291° (WNW) 04:44:13 435.822/435.867
NO-84 17 Dec 04:37:22 04:38:02 11° 125° (SE) 04:38:41 435.350 FM
PCSat 17 Dec 04:37:32 04:40:59 17° 255° (WSW) 04:44:26 145.827
AO-85 17 Dec 04:39:17 04:43:16 27° 43° (NE) 04:47:30 145.980
BEESAT 2 17 Dec 04:45:06 04:49:09 75° 54° (NE) 04:53:08 435.950
LilacSat-2 17 Dec 05:06:10 05:08:31 15° 91° (E) 05:10:52 437.200
STRAND 1 17 Dec 05:14:20 05:17:39 18° 60° (ENE) 05:20:58 437.568
XW-2D 17 Dec 05:16:09 05:18:57 19° 93° (E) 05:21:43 145.860 - 145.880
AO-7 17 Dec 05:17:10 05:24:35 37° 303° (WNW) 05:31:59 .
KKS-1 17 Dec 05:17:29 05:21:20 28° 264° (W) 05:25:12 437.445
KAITUO 1B 17 Dec 05:17:32 05:19:26 13° 91° (E) 05:21:20 145.475/437.950
YUBILEINY 17 Dec 05:19:23 05:24:40 17° 304° (NW) 05:30:00 435.215
FO-29 17 Dec 05:21:18 05:25:08 15° 50° (NE) 05:28:55 435.910
XW-2B 17 Dec 05:31:44 05:35:04 27° 96° (E) 05:38:20 145.730 - 145.750
M-CUBED/EXP-1 PRIME 17 Dec 05:38:27 05:40:14 12° 308° (NW) 05:41:58 437.505
XW-2F 17 Dec 05:41:04 05:44:34 32° 97° (E) 05:48:01 145.980 - 146.000
STARS 17 Dec 05:52:05 05:55:56 30° 263° (W) 05:59:48 437.465
XW-2C 17 Dec 05:58:58 06:02:48 58° 101° (E) 06:06:34 145.795 - 145.815
CUTE 1.7 + AOD 2 17 Dec 06:01:28 06:04:14 17° 91° (E) 06:07:00 437.475
DOVE 4 17 Dec 06:10:55 06:14:19 22° 296° (WNW) 06:17:34 437.250
NO-84 17 Dec 06:11:42 06:14:41 73° 323° (NW) 06:17:54 435.350 FM
AO-85 17 Dec 06:19:15 06:23:56 53° 240° (WSW) 06:28:57 145.980
CUTE-I 17 Dec 06:20:25 06:25:44 68° 102° (ESE) 06:31:01 437.470
BEESAT 2 17 Dec 06:25:08 06:26:14 11° 252° (WSW) 06:27:20 435.950
LilacSat-2 17 Dec 06:39:18 06:43:00 42° 288° (WNW) 06:46:39 437.200
NUDT-PHONESAT 17 Dec 06:40:50 06:44:34 63° 285° (WNW) 06:48:16 437.300
HO-68 17 Dec 06:42:06 06:48:59 48° 99° (E) 06:55:49 435.675
XW-2D 17 Dec 06:49:42 06:53:11 33° 290° (WNW) 06:56:39 145.860 - 145.880
KAITUO 1B 17 Dec 06:50:00 06:53:40 46° 287° (WNW) 06:57:17 145.475/437.950
STRAND 1 17 Dec 06:51:12 06:56:17 68° 257° (WSW) 07:01:24 437.568
FO-29 17 Dec 07:01:01 07:08:39 59° 69° (ENE) 07:16:14 435.910
XW-2B 17 Dec 07:05:59 07:09:07 24° 292° (WNW) 07:12:12 145.730 - 145.750
SEEDS 17 Dec 07:07:14 07:11:23 51° 99° (E) 07:15:29 437.485
UWE-3 17 Dec 07:12:15 07:16:12 33° 97° (E) 07:20:12 435.000/436.395/437.385
XW-2F 17 Dec 07:15:37 07:18:27 20° 293° (WNW) 07:21:16 145.980 - 146.000
AAUSAT CUBESAT 2 17 Dec 07:17:17 07:20:54 28° 95° (E) 07:24:29 437.432
CUBEBUG 2 17 Dec 07:18:39 07:22:55 68° 101° (E) 07:27:18 437.445
ZACube-1 17 Dec 07:30:38 07:34:25 28° 95° (E) 07:38:15 437.345
XW-2C 17 Dec 07:34:51 07:36:28 12° 297° (WNW) 07:38:06 145.795 - 145.815
O/OREOS (USA 219) 17 Dec 07:35:58 07:40:26 54° 109° (ESE) 07:44:53 437.305
CUTE 1.7 + AOD 2 17 Dec 07:36:11 07:40:19 47° 288° (WNW) 07:44:24 437.475
Oscar 11 17 Dec 07:45:20 07:48:49 23° 93° (E) 07:52:15 .
NO-84 17 Dec 07:50:10 07:52:26 18° 345° (NNW) 07:54:50 435.350 FM
CUTE-I 17 Dec 08:01:38 08:05:14 19° 300° (WNW) 08:08:49 437.470
XW-2A 17 Dec 08:02:09 08:05:36 80° 283° (WNW) 08:09:02 145.665 - 145.685
AO-73 17 Dec 08:02:21 08:06:38 53° 99° (E) 08:11:01 145.935
TIGRISAT 17 Dec 08:04:18 08:07:40 23° 66° (ENE) 08:11:01 435.000
UNISAT 6 17 Dec 08:08:08 08:11:45 27° 68° (ENE) 08:15:21 437.425
HO-68 17 Dec 08:30:07 08:36:33 37° 298° (WNW) 08:42:58 435.675
SEEDS 17 Dec 08:43:59 08:46:39 16° 297° (WNW) 08:49:18 437.485
FO-29 17 Dec 08:47:01 08:53:54 34° 267° (W) 09:00:50 435.910
UWE-3 17 Dec 08:48:56 08:52:30 25° 293° (WNW) 08:56:08 435.000/436.395/437.385
AAUSAT CUBESAT 2 17 Dec 08:52:46 08:56:16 26° 292° (WNW) 08:59:42 437.432
CUBEBUG 2 17 Dec 08:56:59 08:59:03 13° 298° (WNW) 09:01:07 437.445
Max Valier Satellite 17 Dec 08:57:42 09:00:14 17° 93° (E) 09:02:45 145.860
ZACube-1 17 Dec 09:06:51 09:10:40 30° 291° (WNW) 09:14:32 437.345
nSIGHT-1 17 Dec 09:11:20 09:12:16 11° 131° (SE) 09:13:14 .
AIST 2D 17 Dec 09:12:16 09:13:30 12° 64° (ENE) 09:14:46 435.315
O/OREOS (USA 219) 17 Dec 09:16:51 09:20:10 19° 308° (NW) 09:23:29 437.305
EO-88 17 Dec 09:18:15 09:21:01 20° 94° (E) 09:23:45 145.990 - 145.960
Oscar 11 17 Dec 09:21:02 09:25:01 35° 291° (WNW) 09:28:59 .
DELFI C3 17 Dec 09:25:05 09:28:57 53° 100° (E) 09:32:47 145.870
PRISM 17 Dec 09:25:46 09:29:50 55° 73° (ENE) 09:33:54 437.425
NO-84 17 Dec 09:28:46 09:30:46 14° 7° (N) 09:32:49 435.350 FM
AO-73 17 Dec 09:39:39 09:42:29 17° 296° (WNW) 09:45:22 145.935
TIGRISAT 17 Dec 09:40:18 09:44:11 34° 263° (W) 09:48:05 435.000
UNISAT 6 17 Dec 09:44:42 09:48:24 28° 264° (W) 09:52:06 437.425
EO-79 17 Dec 09:45:48 09:47:29 12° 61° (ENE) 09:49:10 145.935-145.965
ISS 17 Dec 10:02:22 10:05:09 25° 137° (SE) 10:07:56 437.550
POLYITAN 1 17 Dec 10:08:03 10:11:08 20° 65° (ENE) 10:14:14 437.675
ESTCUBE 1 17 Dec 10:21:14 10:23:26 13° 89° (E) 10:25:38 437.505/2401.250
Max Valier Satellite 17 Dec 10:30:44 10:34:09 34° 289° (WNW) 10:37:33 145.860
QB50P2 17 Dec 10:33:02 10:36:57 40° 71° (ENE) 10:40:53 145.880/145.840
DUCHIFAT 1 17 Dec 10:33:24 10:36:58 28° 68° (ENE) 10:40:32 145.980
AIST 2D 17 Dec 10:42:47 10:46:13 51° 261° (W) 10:49:41 435.315
nSIGHT-1 17 Dec 10:44:46 10:47:59 82° 147° (SSE) 10:51:12 .
EO-88 17 Dec 10:51:27 10:54:39 28° 290° (WNW) 10:57:50 145.990 - 145.960
NANOSAT C BR1 17 Dec 11:01:01 11:05:09 65° 74° (ENE) 11:09:18 145.865
DELFI C3 17 Dec 11:01:13 11:03:15 14° 297° (WNW) 11:05:15 145.870
BUGSAT 1 17 Dec 11:02:59 11:05:13 15° 63° (ENE) 11:07:27 437.445
PRISM 17 Dec 11:03:17 11:05:25 14° 269° (W) 11:07:34 437.425
NO-84 17 Dec 11:05:39 11:08:52 30° 27° (NNE) 11:12:18 435.350 FM
LO-87 17 Dec 11:11:25 11:14:56 59° 101° (E) 11:18:26 145.935 - 145.965
Oscar 19 17 Dec 11:18:11 11:21:31 18° 60° (ENE) 11:24:52 437.125/150
EO-79 17 Dec 11:18:30 11:22:40 71° 258° (WSW) 11:26:52 145.935-145.965
YUBILEINY 17 Dec 11:31:11 11:35:23 14° 53° (NE) 11:39:33 435.215
ISS 17 Dec 11:38:16 11:41:28 50° 335° (NNW) 11:44:42 437.550
VELOX 1 17 Dec 11:40:55 11:42:56 13° 90° (E) 11:44:54 145.980
POLYITAN 1 17 Dec 11:42:46 11:46:39 38° 262° (W) 11:50:36 437.675
SPROUT 17 Dec 11:55:33 11:59:19 30° 96° (E) 12:03:05 437.525
ESTCUBE 1 17 Dec 11:56:09 12:00:41 66° 286° (WNW) 12:05:09 437.505/2401.250
DUCHIFAT 1 17 Dec 12:09:05 12:12:35 26° 265° (W) 12:16:06 145.980
QB50P2 17 Dec 12:09:56 12:12:53 19° 267° (W) 12:15:52 145.880/145.840
AO-91 17 Dec 12:13:36 12:18:07 46° 73° (ENE) 12:22:13 145.960
nSIGHT-1 17 Dec 12:21:39 12:24:28 27° 346° (NNW) 12:27:16 .
Gurwin Techsat 1B 17 Dec 12:23:22 12:28:27 47° 69° (ENE) 12:33:32 435.225
RS-15 17 Dec 12:32:21 12:41:56 28° 101° (ESE) 12:51:26 29.354- 29.394
AO-7 17 Dec 12:34:53 12:40:58 23° 49° (NE) 12:47:04 .
BUGSAT 1 17 Dec 12:36:13 12:40:09 52° 259° (W) 12:44:06 437.445
NANOSAT C BR1 17 Dec 12:39:48 12:41:16 12° 271° (W) 12:42:45 145.865
NO-84 17 Dec 12:42:39 12:46:16 50° 223° (SW) 12:50:09 435.350 FM
LO-87 17 Dec 12:47:16 12:47:50 10° 297° (WNW) 12:48:24 145.935 - 145.965
50 SAT 17 Dec 12:53:35 12:54:51 12° 92° (E) 12:56:09 437.505
Oscar 19 17 Dec 12:55:09 13:00:16 69° 258° (WSW) 13:05:27 437.125/150
VELOX 1 17 Dec 13:15:25 13:19:48 65° 287° (WNW) 13:24:08 145.980
M-CUBED/EXP-1 PRIME 17 Dec 13:15:34 13:18:39 19° 57° (ENE) 13:21:49 437.505
ISS 17 Dec 13:15:47 13:18:29 23° 355° (N) 13:21:10 437.550
YUBILEINY 17 Dec 13:25:34 13:34:20 63° 77° (ENE) 13:43:00 435.215
SPROUT 17 Dec 13:31:35 13:35:06 26° 293° (WNW) 13:38:36 437.525
UKube-1 17 Dec 13:38:20 13:42:07 29° 96° (E) 13:45:52 .
SO-50 17 Dec 13:44:06 13:47:19 20° 112° (ESE) 13:50:34 436.795
AO-91 17 Dec 13:51:22 13:54:41 19° 266° (W) 13:57:49 145.960
nSIGHT-1 17 Dec 13:58:44 14:01:21 22° 6° (N) 14:03:59 .
DX 1 17 Dec 14:00:41 14:05:04 84° 104° (ESE) 14:09:24 434.975-435.025
Gurwin Techsat 1B 17 Dec 14:04:20 14:08:36 24° 267° (W) 14:12:53 435.225
MOZHAYETS 4 17 Dec 14:05:31 14:08:06 15° 90° (E) 14:10:40
ITAMSAT 1 17 Dec 14:14:40 14:19:31 41° 68° (ENE) 14:24:24 435.822/435.867
50 SAT 17 Dec 14:24:03 14:26:56 33° 288° (WNW) 14:29:47 437.505
AO-7 17 Dec 14:24:20 14:32:39 87° 70° (ENE) 14:41:03 .
RS-15 17 Dec 14:40:34 14:52:57 88° 304° (NW) 15:05:13 29.354- 29.394
M-CUBED/EXP-1 PRIME 17 Dec 14:48:10 14:52:32 59° 254° (WSW) 14:57:07 437.505
ISS 17 Dec 14:52:43 14:55:38 29° 15° (NNE) 14:58:34 437.550
BEESAT 17 Dec 14:54:19 14:58:30 30° 96° (E) 15:02:39 436.000
UKube-1 17 Dec 15:14:24 15:18:03 27° 293° (WNW) 15:21:40 .
SO-50 17 Dec 15:23:03 15:27:24 52° 310° (NW) 15:31:50 436.795
YUBILEINY 17 Dec 15:23:12 15:30:31 31° 278° (W) 15:37:48 435.215
ITUPSAT 1 17 Dec 15:24:36 15:29:19 57° 101° (E) 15:34:01 437.325
nSIGHT-1 17 Dec 15:34:52 15:38:03 54° 27° (NNE) 15:41:12 .
CUBESAT XI-V 17 Dec 15:36:29 15:40:40 31° 95° (E) 15:44:49 437.345
DOVE 4 17 Dec 15:38:21 15:43:24 51° 72° (ENE) 15:48:16 437.250
DX 1 17 Dec 15:39:11 15:40:34 11° 301° (WNW) 15:41:57 434.975-435.025
MOZHAYETS 4 17 Dec 15:41:04 15:45:39 62° 287° (WNW) 15:50:12
LilacSat-2 17 Dec 15:51:15 15:52:02 11° 61° (ENE) 15:52:49 437.200
ITAMSAT 1 17 Dec 15:54:43 15:59:06 27° 265° (W) 16:03:30 435.822/435.867
XW-2D 17 Dec 15:59:55 16:01:35 13° 63° (ENE) 16:03:15 145.860 - 145.880
CUTE-I 17 Dec 16:05:55 16:09:39 20° 60° (ENE) 16:13:23 437.470
O/OREOS (USA 219) 17 Dec 16:06:01 16:09:03 17° 51° (NE) 16:12:04 437.305
XW-2B 17 Dec 16:14:55 16:17:28 17° 65° (ENE) 16:20:02 145.730 - 145.750
AO-7 17 Dec 16:20:31 16:26:24 21° 269° (W) 16:32:20 .
XW-2F 17 Dec 16:23:34 16:26:24 20° 67° (ENE) 16:29:14 145.980 - 146.000
ISS 17 Dec 16:29:04 16:32:22 72° 214° (SW) 16:35:37 437.550
BEESAT 17 Dec 16:32:01 16:36:15 32° 293° (WNW) 16:40:28 436.000
XW-2C 17 Dec 16:41:27 16:44:55 34° 71° (ENE) 16:48:24 145.795 - 145.815
CUTE 1.7 + AOD 2 17 Dec 16:55:59 16:58:31 15° 63° (ENE) 17:01:02 437.475
RS-15 17 Dec 16:56:04 17:07:15 38° 331° (NNW) 17:18:13 29.354- 29.394
ITUPSAT 1 17 Dec 17:03:28 17:06:42 18° 299° (WNW) 17:09:57 437.325
KKS-1 17 Dec 17:05:56 17:10:12 46° 99° (E) 17:14:26 437.445
SO-50 17 Dec 17:07:12 17:08:55 12° 331° (NNW) 17:10:39 436.795
nSIGHT-1 17 Dec 17:11:27 17:14:03 22° 223° (SW) 17:16:36 .
HO-68 17 Dec 17:12:18 17:18:56 42° 63° (ENE) 17:25:35 435.675
CUBESAT XI-V 17 Dec 17:13:51 17:17:58 31° 293° (WNW) 17:22:04 437.345
DOVE 4 17 Dec 17:17:17 17:21:16 22° 268° (W) 17:25:10 437.250
NUDT-PHONESAT 17 Dec 17:20:36 17:24:16 68° 75° (ENE) 17:27:59 437.300
LilacSat-2 17 Dec 17:21:54 17:25:43 71° 259° (WSW) 17:29:35 437.200
KAITUO 1B 17 Dec 17:30:32 17:34:18 85° 257° (WSW) 17:38:06 145.475/437.950
XW-2D 17 Dec 17:31:32 17:35:16 56° 260° (W) 17:39:03 145.860 - 145.880
PCSat 17 Dec 17:35:52 17:41:02 47° 114° (ESE) 17:46:14 145.827
STARS 17 Dec 17:39:01 17:43:10 41° 99° (E) 17:47:16 437.465
CUTE-I 17 Dec 17:43:51 17:49:11 66° 258° (WSW) 17:54:32 437.470
O/OREOS (USA 219) 17 Dec 17:44:26 17:48:53 59° 250° (WSW) 17:53:16 437.305
XW-2B 17 Dec 17:47:49 17:51:20 37° 262° (W) 17:54:56 145.730 - 145.750
XW-2F 17 Dec 17:56:55 18:00:18 31° 264° (W) 18:03:44 145.980 - 146.000
